This demonstration page uses our WeatherBlox Daily Observations layout. Learn more.

Left ArrowRight Arrow

41.55636, -103.73856

Hourly Observations for January 1, 2021

Temp ( °F °C ) Dew Point ( °F °C ) Humidity (%) Winds ( mph kmh ) Pressure ( in mb ) Visibility ( mi km ) Precip ( " mm )
12:58 am 00:58 Cloudy 28 -2.2 22 -5.6 78 78 NW 7 11 30.14 1021 10 16.0934 0 0
1:58 am 01:58 Cloudy 28 -2.4 22 -5.8 78 78 W 5 7 30.14 1021 10 16.0934 0 0
2:58 am 02:58 Cloudy 27 -3 22 -5.6 82 82 WSW 5 7 30.15 1021 10 16.0934 0 0
3:58 am 03:58 Cloudy 28 -2.3 22 -5.6 78 78 W 6 9 30.16 1021 10 16.0934 0 0
4:58 am 04:58 Cloudy 27 -2.7 21 -5.9 79 79 WSW 6 9 30.19 1022 10 16.0934 0 0
5:58 am 05:58 Mostly Cloudy 26 -3.5 20 -6.7 79 79 WSW 6 9 30.22 1023 10 16.0934 0 0
6:58 am 06:58 Mostly Cloudy 28 -2 20 -6.4 72 72 W 7 11 30.25 1025 10 16.0934 0 0
7:58 am 07:58 Cloudy 28 -2.1 21 -6.2 74 74 W 7 11 30.25 1024 10 16.0934 0 0
8:58 am 08:58 Mostly Cloudy 32 0.1 23 -5.1 68 68 W 6 9 30.26 1025 10 16.0934 0 0
9:58 am 09:58 Sunny 35 1.7 22 -5.4 60 60 W 7 11 30.26 1025 10 16.0934 0 0
10:58 am 10:58 Sunny 37 2.9 22 -5.5 54 54 NW 9 15 30.23 1024 10 16.0934 0 0
11:58 am 11:58 Sunny 39 3.8 21 -6.2 48 48 WNW 9 15 30.18 1022 10 16.0934 0 0
12:58 pm 12:58 Sunny 40 4.5 20 -6.4 45 45 N 9 15 30.16 1021 10 16.0934 0 0
1:58 pm 13:58 Sunny 41 4.9 20 -6.6 44 44 NW 8 13 30.16 1021 10 16.0934 0 0
2:58 pm 14:58 Sunny 41 4.9 19 -7.3 41 41 Calm 30.16 1021 10 16.0934 0 0
3:58 pm 15:58 Sunny 37 2.7 21 -6 53 53 E 6 9 30.17 1022 10 16.0934 0 0
4:58 pm 16:58 Clear 33 0.4 21 -6.2 62 62 SE 8 13 30.2 1023 10 16.0934 0 0
5:58 pm 17:58 Clear 28 -2.1 20 -6.8 71 71 S 5 7 30.22 1023 10 16.0934 0 0
6:58 pm 18:58 Clear 26 -3.2 19 -7 75 75 SSW 5 7 30.21 1023 10 16.0934 0 0
7:58 pm 19:58 Clear 27 -2.7 21 -6 78 78 SSW 14 22 30.21 1023 10 16.0934 0 0
8:58 pm 20:58 Clear 28 -2.3 22 -5.7 78 78 SSW 14 22 30.18 1022 10 16.0934 0 0
9:58 pm 21:58 Clear 25 -3.7 20 -6.7 80 80 SSW 13 20 30.16 1022 10 16.0934 0 0
10:58 pm 22:58 Clear 26 -3.4 20 -6.6 79 79 WSW 5 7 30.13 1020 10 16.0934 0 0
11:58 pm 23:58 Clear 27 -2.9 20 -6.8 75 75 W 7 11 30.11 1020 10 16.0934 0 0

Powered by AerisWeather